Madison, MN

10:28 PM CST on November 11, 2019 (GMT -0600)
Madison-Lac Qui Parle County

Weather History for KDXX - October, 2019

Change the Weather History Date:

Wednesday, October 23, 2019

  Actual Average (KAQP) Record (KAQP)
Temperature  
Mean Temperature 36 °F -  
Max Temperature 42 °F 51 °F 73 °F (1998)
Min Temperature 30 °F 32 °F 23 °F (2002)
Degree Days  
Heating Degree Days 29    
Moisture  
Dew Point 31 °F    
Average Humidity 82    
Maximum Humidity 93    
Minimum Humidity 70    
Precipitation  
Precipitation 0.00 in - - ()
Sea Level Pressure  
Sea Level Pressure 29.96 in    
Wind  
Wind Speed 8 mph (NW)    
Max Wind Speed 17 mph    
Max Gust Speed 22 mph    
Visibility 10 miles    
Events      
Averages and records for this station are not official NWS values.
T = Trace of Precipitation, MM = Missing Value Source: NWS Daily Summary

Daily Weather History Graph

Daily Weather History Graph

Search for Another Location

Airport or City:

Astronomy

Oct. 23, 2019 Rise Set
Actual Time 7:50 AM CDT 6:26 PM CDT
Civil Twilight 7:20 AM CDT 6:56 PM CDT
Nautical Twilight 6:46 AM CDT 7:30 PM CDT
Astronomical Twilight 6:12 AM CDT 8:04 PM CDT
Moon 1:51 AM CDT (10/23) 4:35 PM CDT (10/23)
Length of Visible Light 11h 35m
Length of Day
10h 36m
Waning Crescent, 26% of the Moon is Illuminated
Oct 23
Waning Crescent
Oct 27
New
Nov 4
First Quarter
Nov 12
Full
Nov 19
Last Quarter

Hourly Weather History & Observations

Time (CDT) Temp. Windchill Dew Point Humidity Pressure Visibility Wind Dir Wind Speed Gust Speed Precip Events Conditions
12:15 AM 33.8 °F 28.6 °F 30.2 °F 87% 29.77 in 10.0 mi West 5.8 mph - N/A   Clear
12:16 AM 33.8 °F 28.6 °F 30.2 °F 87% 29.77 in 10.0 mi West 5.8 mph - N/A   Clear
12:35 AM 33.8 °F 27.7 °F 28.4 °F 81% 29.77 in 10.0 mi West 6.9 mph - N/A   Clear
12:40 AM 33.8 °F 28.6 °F 28.4 °F 81% 29.77 in 10.0 mi West 5.8 mph - N/A   Clear
12:57 AM 32.0 °F 26.4 °F 28.4 °F 87% 29.77 in 10.0 mi West 5.8 mph - N/A   Clear
1:15 AM 30.2 °F 23.4 °F 28.4 °F 93% 29.77 in 10.0 mi West 6.9 mph - N/A   Clear
1:35 AM 32.0 °F 25.6 °F 28.4 °F 87% 29.77 in 10.0 mi West 6.9 mph - N/A   Clear
1:36 AM 32.0 °F 25.6 °F 28.4 °F 87% 29.77 in 10.0 mi West 6.9 mph - N/A   Clear
1:56 AM 33.8 °F 27.7 °F 30.2 °F 87% 29.78 in 10.0 mi West 6.9 mph - N/A   Clear
2:18 AM 32.0 °F 26.4 °F 28.4 °F 87% 29.78 in 10.0 mi West 5.8 mph - N/A   Clear
2:37 AM 32.0 °F 25.6 °F 28.4 °F 87% 29.78 in 10.0 mi West 6.9 mph - N/A   Clear
2:56 AM 30.2 °F 24.3 °F 28.4 °F 93% 29.79 in 10.0 mi West 5.8 mph - N/A   Clear
3:15 AM 32.0 °F 25.6 °F 28.4 °F 87% 29.79 in 10.0 mi West 6.9 mph - N/A   Clear
3:35 AM 32.0 °F 24.8 °F 28.4 °F 87% 29.79 in 10.0 mi WNW 8.1 mph - N/A   Clear
3:39 AM 32.0 °F 25.6 °F 28.4 °F 87% 29.79 in 10.0 mi WNW 6.9 mph - N/A   Clear
3:57 AM 33.8 °F 27.7 °F 28.4 °F 81% 29.80 in 10.0 mi WNW 6.9 mph - N/A   Clear
4:16 AM 30.2 °F 24.3 °F 28.4 °F 93% 29.80 in 10.0 mi West 5.8 mph - N/A   Clear
4:35 AM 30.2 °F 24.3 °F 28.4 °F 93% 29.81 in 10.0 mi West 5.8 mph - N/A   Clear
4:36 AM 30.2 °F 23.4 °F 28.4 °F 93% 29.81 in 10.0 mi West 6.9 mph - N/A   Clear
4:55 AM 30.2 °F 25.4 °F 28.4 °F 93% 29.81 in 10.0 mi WNW 4.6 mph - N/A   Clear
4:56 AM 30.2 °F 25.4 °F 28.4 °F 93% 29.81 in 10.0 mi WNW 4.6 mph - N/A   Clear
5:18 AM 30.2 °F 25.4 °F 26.6 °F 86% 29.82 in 10.0 mi WNW 4.6 mph - N/A   Clear
5:36 AM 30.2 °F 26.7 °F 28.4 °F 93% 29.83 in 10.0 mi West 3.5 mph - N/A   Clear
5:55 AM 30.2 °F 24.3 °F 28.4 °F 93% 29.84 in 10.0 mi WSW 5.8 mph - N/A   Scattered Clouds
6:15 AM 30.2 °F 24.3 °F 26.6 °F 86% 29.84 in 10.0 mi West 5.8 mph - N/A   Scattered Clouds
6:16 AM 30.2 °F 24.3 °F 26.6 °F 86% 29.85 in 10.0 mi West 5.8 mph - N/A   Scattered Clouds
6:35 AM 30.2 °F 24.3 °F 26.6 °F 86% 29.84 in 10.0 mi WNW 5.8 mph - N/A   Clear
6:39 AM 30.2 °F 24.3 °F 26.6 °F 86% 29.84 in 10.0 mi WNW 5.8 mph - N/A   Clear
6:58 AM 30.2 °F 25.4 °F 26.6 °F 86% 29.84 in 10.0 mi West 4.6 mph - N/A   Clear
7:15 AM 30.2 °F 25.4 °F 26.6 °F 86% 29.85 in 10.0 mi WNW 4.6 mph - N/A   Clear
7:35 AM 30.2 °F 25.4 °F 26.6 °F 86% 29.85 in 10.0 mi WNW 4.6 mph - N/A   Clear
7:36 AM 30.2 °F 25.4 °F 26.6 °F 86% 29.85 in 10.0 mi WNW 4.6 mph - N/A   Clear
7:55 AM 30.2 °F 26.7 °F 26.6 °F 86% 29.85 in 10.0 mi WNW 3.5 mph - N/A   Clear
8:18 AM 32.0 °F 27.5 °F 28.4 °F 87% 29.86 in 10.0 mi NW 4.6 mph - N/A   Clear
8:37 AM 33.8 °F 29.6 °F 28.4 °F 81% 29.86 in 10.0 mi NW 4.6 mph - N/A   Clear
8:55 AM 33.8 °F 29.6 °F 30.2 °F 87% 29.87 in 10.0 mi NW 4.6 mph - N/A   Clear
8:56 AM 33.8 °F 29.6 °F 30.2 °F 87% 29.87 in 10.0 mi NW 4.6 mph - N/A   Clear
9:15 AM 33.8 °F 28.6 °F 30.2 °F 87% 29.88 in 10.0 mi NW 5.8 mph - N/A   Clear
9:16 AM 33.8 °F 28.6 °F 30.2 °F 87% 29.88 in 10.0 mi NW 5.8 mph - N/A   Clear
9:38 AM 35.6 °F 30.7 °F 30.2 °F 81% 29.89 in 10.0 mi NW 5.8 mph - N/A   Clear
9:56 AM 35.6 °F 29.9 °F 32.0 °F 87% 29.90 in 10.0 mi NW 6.9 mph - N/A   Clear
10:15 AM 35.6 °F 29.9 °F 32.0 °F 87% 29.91 in 10.0 mi NW 6.9 mph - N/A   Scattered Clouds
10:35 AM 37.4 °F 31.4 °F 33.8 °F 87% 29.92 in 10.0 mi NW 8.1 mph - N/A   Scattered Clouds
10:36 AM 37.4 °F 32.1 °F 33.8 °F 87% 29.92 in 10.0 mi WNW 6.9 mph - N/A   Scattered Clouds
10:55 AM 37.4 °F 32.1 °F 33.8 °F 87% 29.93 in 10.0 mi NNW 6.9 mph - N/A   Clear
10:59 AM 37.4 °F 31.4 °F 33.8 °F 87% 29.93 in 10.0 mi NW 8.1 mph - N/A   Clear
11:16 AM 37.4 °F 32.8 °F 33.8 °F 87% 29.93 in 10.0 mi NW 5.8 mph - N/A   Clear
11:36 AM 39.2 °F 33.6 °F 33.8 °F 81% 29.94 in 10.0 mi NNW 8.1 mph - N/A   Clear
11:55 AM 39.2 °F 33.0 °F 33.8 °F 81% 29.94 in 10.0 mi NNW 9.2 mph - N/A   Clear
12:15 PM 41.0 °F 34.3 °F 33.8 °F 76% 29.94 in 10.0 mi NNW 11.5 mph - N/A   Clear
12:19 PM 41.0 °F 34.3 °F 33.8 °F 76% 29.95 in 10.0 mi NNW 11.5 mph - N/A   Clear
12:37 PM 41.0 °F 34.3 °F 33.8 °F 76% 29.95 in 10.0 mi NNW 11.5 mph - N/A   Clear
12:56 PM 41.0 °F 33.5 °F 33.8 °F 76% 29.95 in 10.0 mi NNW 13.8 mph - N/A   Clear
1:15 PM 42.8 °F 36.6 °F 33.8 °F 70% 29.96 in 10.0 mi NW 11.5 mph - N/A   Clear
1:16 PM 42.8 °F 37.0 °F 33.8 °F 70% 29.96 in 10.0 mi NW 10.4 mph - N/A   Clear
1:35 PM 42.8 °F 35.4 °F 33.8 °F 70% 29.95 in 10.0 mi NNW 15.0 mph - N/A   Clear
1:36 PM 42.8 °F 35.4 °F 33.8 °F 70% 29.95 in 10.0 mi NNW 15.0 mph - N/A   Clear
1:58 PM 42.8 °F 35.1 °F 33.8 °F 70% 29.96 in 10.0 mi North 16.1 mph - N/A   Scattered Clouds
2:16 PM 42.8 °F 34.8 °F 33.8 °F 70% 29.96 in 10.0 mi NNW 17.3 mph - N/A   Overcast
2:35 PM 42.8 °F 35.4 °F 33.8 °F 70% 29.96 in 10.0 mi North 15.0 mph - N/A   Overcast
2:36 PM 42.8 °F 35.8 °F 33.8 °F 70% 29.97 in 10.0 mi North 13.8 mph - N/A   Overcast
2:55 PM 42.8 °F 35.4 °F 33.8 °F 70% 29.98 in 10.0 mi NNW 15.0 mph - N/A   Overcast
2:56 PM 42.8 °F 35.4 °F 33.8 °F 70% 29.98 in 10.0 mi NNW 15.0 mph - N/A   Overcast
3:15 PM 42.8 °F 35.1 °F 33.8 °F 70% 29.99 in 10.0 mi North 16.1 mph - N/A   Overcast
3:19 PM 42.8 °F 35.4 °F 33.8 °F 70% 29.99 in 10.0 mi NNW 15.0 mph - N/A   Overcast
3:38 PM 42.8 °F 35.1 °F 33.8 °F 70% 30.00 in 10.0 mi NNW 16.1 mph 21.9 mph N/A   Overcast
3:55 PM 42.8 °F 35.1 °F 33.8 °F 70% 30.01 in 10.0 mi NNW 16.1 mph 20.7 mph N/A   Overcast
4:15 PM 41.0 °F 33.9 °F 33.8 °F 76% 30.02 in 10.0 mi North 12.7 mph - N/A   Overcast
4:16 PM 41.0 °F 33.5 °F 33.8 °F 76% 30.02 in 10.0 mi NNW 13.8 mph - N/A   Overcast
4:35 PM 41.0 °F 34.3 °F 33.8 °F 76% 30.04 in 10.0 mi NNW 11.5 mph - N/A   Overcast
4:58 PM 39.2 °F 31.6 °F 33.8 °F 81% 30.05 in 10.0 mi North 12.7 mph - N/A   Overcast
5:17 PM 39.2 °F 32.0 °F 33.8 °F 81% 30.07 in 10.0 mi North 11.5 mph - N/A   Overcast
5:55 PM 39.2 °F 32.0 °F 33.8 °F 81% 30.09 in 10.0 mi NNW 11.5 mph - N/A   Overcast
5:56 PM 39.2 °F 32.0 °F 33.8 °F 81% 30.09 in 10.0 mi NNW 11.5 mph - N/A   Overcast
6:15 PM 39.2 °F 31.2 °F 33.8 °F 81% 30.10 in 10.0 mi NNW 13.8 mph 18.4 mph N/A   Overcast
6:37 PM 39.2 °F 31.6 °F 33.8 °F 81% 30.11 in 10.0 mi NNW 12.7 mph - N/A   Overcast
6:55 PM 39.2 °F 33.0 °F 33.8 °F 81% 30.13 in 10.0 mi NW 9.2 mph - N/A   Overcast
7:15 PM 39.2 °F 33.6 °F 33.8 °F 81% 30.14 in 10.0 mi NNW 8.1 mph - N/A   Overcast
7:35 PM 39.2 °F 33.6 °F 33.8 °F 81% 30.14 in 10.0 mi NW 8.1 mph - N/A   Overcast
7:59 PM 39.2 °F 33.6 °F 33.8 °F 81% 30.16 in 10.0 mi NW 8.1 mph - N/A   Overcast
8:16 PM 39.2 °F 33.6 °F 33.8 °F 81% 30.16 in 10.0 mi WNW 8.1 mph - N/A   Overcast
8:36 PM 39.2 °F 33.6 °F 33.8 °F 81% 30.17 in 10.0 mi NW 8.1 mph - N/A   Overcast
8:55 PM 39.2 °F 33.6 °F 33.8 °F 81% 30.18 in 10.0 mi WNW 8.1 mph - N/A   Overcast
9:15 PM 39.2 °F 33.0 °F 33.8 °F 81% 30.18 in 10.0 mi NW 9.2 mph - N/A   Overcast
9:19 PM 39.2 °F 34.2 °F 33.8 °F 81% 30.18 in 10.0 mi WNW 6.9 mph - N/A   Overcast
9:37 PM 39.2 °F 33.0 °F 33.8 °F 81% 30.18 in 10.0 mi WNW 9.2 mph - N/A   Overcast
9:55 PM 39.2 °F 33.0 °F 33.8 °F 81% 30.19 in 10.0 mi NW 9.2 mph - N/A   Overcast
10:15 PM 39.2 °F 33.0 °F 33.8 °F 81% 30.20 in 10.0 mi NW 9.2 mph - N/A   Overcast
10:16 PM 39.2 °F 33.0 °F 33.8 °F 81% 30.20 in 10.0 mi NW 9.2 mph - N/A   Overcast
10:35 PM 39.2 °F 33.6 °F 33.8 °F 81% 30.21 in 10.0 mi NW 8.1 mph - N/A   Overcast
10:36 PM 39.2 °F 33.6 °F 33.8 °F 81% 30.21 in 10.0 mi WNW 8.1 mph - N/A   Overcast
10:58 PM 39.2 °F 34.2 °F 33.8 °F 81% 30.21 in 10.0 mi WNW 6.9 mph - N/A   Overcast
11:17 PM 39.2 °F 33.6 °F 33.8 °F 81% 30.22 in 10.0 mi WNW 8.1 mph - N/A   Overcast
11:35 PM 39.2 °F 32.5 °F 32.0 °F 75% 30.22 in 10.0 mi WNW 10.4 mph - N/A   Overcast
11:36 PM 39.2 °F 32.5 °F 32.0 °F 75% 30.22 in 10.0 mi WNW 10.4 mph - N/A   Overcast
11:55 PM 39.2 °F 32.5 °F 30.2 °F 70% 30.22 in 10.0 mi NW 10.4 mph - N/A   Overcast
11:56 PM 39.2 °F 32.5 °F 30.2 °F 70% 30.22 in 10.0 mi NW 10.4 mph - N/A   Overcast